Simultaneous Nadir Overpasses (SNOs) Predictions

Prediction of SNOs between GOES-16 and LANDSAT-8 Satellite Orbit:

Table of predicted SNOs for the next 14.0 days since TLE Epoch: 11/12/2022
Index Date Time (GOES-16) GOES-16 Lat,Lon LANDSAT-8 Lat,Lon Distance(km) Time Diff (sec)
1 11/12/2022 03:11:31 0.06, -75.18 0.18, -74.70 55.99 2
2 11/14/2022 02:58:00 0.05, -75.19 0.79, -71.73 393.69 80
3 11/14/2022 15:19:15 -0.05, -75.22 0.32, -76.88 189.73 80
4 11/16/2022 15:09:42 -0.04, -75.23 -0.31, -73.92 148.98 80
5 11/17/2022 03:31:06 0.04, -75.22 -0.77, -79.11 442.82 80
6 11/18/2022 14:54:49 -0.04, -75.25 -0.95, -70.96 488.40 80
7 11/19/2022 03:18:52 0.03, -75.24 -0.19, -76.14 103.29 80
8 11/21/2022 03:03:59 0.03, -75.27 0.47, -73.18 236.89 80
9 11/21/2022 15:25:14 -0.03, -75.29 0.63, -78.34 346.15 80
10 11/23/2022 15:15:40 -0.03, -75.32 0.01, -75.37 6.61 80
11 11/25/2022 15:03:27 -0.02, -75.35 -0.68, -72.41 334.89 80
